Zurück zum Katalog

DELTA 1 DEB

AktivPO
NORAD 21283·DEBRIS·🇺🇸 United States

Gestartet Jun 12, 1975 von Vandenberg Space Force Base

Loading…

Nächste Überflüge (nächste 24 Stunden)

TLE

AktuellSource: Space-Track

Epoche: Sep 14, 2026, 11:40 UTC

1 21283U 75052U   26257.48622520 -.00000164  00000-0 -38013-3 0  9997
2 21283  99.7934 342.4117 0243096  61.6503 312.5227 12.97993543674355

Verfolge DELTA 1 DEB in Echtzeit mit AllMySat

Download on the App Store